DB0SMU-12 Weather Reports


Display with metric or nautical units.
time (UTC)temp
F
wind
direction
speed
MPH
gust
MPH
rain 1hr
in
rain 24hr
in
rain mn
in
humidity
%
barometer
mb
20260505223707 54 225 5.0 8.0 0.00 0.01 0.00 75 1010.6
20260505223406 54 210 5.0 9.0 0.00 0.01 0.00 74 1010.6
20260505223105 54 208 6.0 9.0 0.00 0.01 0.00 74 1010.6
20260505222804 54 212 6.0 10.0 0.00 0.01 0.00 74 1010.6
20260505222503 54 210 7.0 10.0 0.00 0.01 0.00 74 1010.5
20260505222202 54 219 7.0 10.0 0.00 0.01 0.00 74 1010.5
20260505221901 54 219 5.0 8.0 0.00 0.01 0.00 74 1010.4
20260505221302 54 221 4.0 11.0 0.00 0.01 0.00 74 1010.5
20260505220958 54 207 8.0 11.0 0.00 0.01 0.00 74 1010.5
20260505220657 54 212 6.0 10.0 0.00 0.01 0.00 75 1010.5
20260505220357 54 215 6.0 10.0 0.00 0.01 0.00 76 1010.6
20260505220056 54 222 8.0 10.0 0.00 0.01 0.00 76 1010.5
20260505215755 54 220 8.0 11.0 0.00 0.01 0.00 76 1010.4
20260505215454 54 219 8.0 11.0 0.00 0.01 0.00 77 1010.5
20260505215153 54 225 9.0 11.0 0.00 0.01 0.00 77 1010.4
20260505214852 54 224 9.0 10.0 0.00 0.01 0.00 77 1010.4
20260505214552 54 225 8.0 12.0 0.00 0.01 0.00 77 1010.4
20260505214251 54 225 9.0 14.0 0.00 0.01 0.00 77 1010.5
20260505213950 54 225 10.0 14.0 0.00 0.01 0.00 77 1010.6
20260505213649 54 225 10.0 14.0 0.00 0.01 0.00 76 1010.6
20260505213348 54 221 11.0 13.0 0.00 0.01 0.00 77 1010.6
20260505213047 54 218 9.0 11.0 0.00 0.01 0.00 76 1010.5
20260505212746 54 225 8.0 11.0 0.00 0.01 0.00 76 1010.6
20260505212445 54 220 8.0 11.0 0.00 0.01 0.00 76 1010.4
20260505212145 55 225 7.0 8.0 0.00 0.01 0.00 75 1010.4
20260505211844 55 223 5.0 8.0 0.00 0.01 0.00 75 1010.3
20260505211543 55 235 5.0 8.0 0.00 0.01 0.00 75 1010.2
20260505211242 55 230 6.0 12.0 0.00 0.01 0.00 75 1010.4
20260505210941 55 223 6.0 14.0 0.00 0.01 0.00 75 1010.3
20260505210640 55 225 9.0 17.0 0.00 0.01 0.00 75 1010.3
20260505210339 55 228 10.0 17.0 0.00 0.01 0.00 74 1010.4
20260505210038 55 224 12.0 17.0 0.00 0.01 0.00 74 1010.4
20260505205737 56 241 7.0 15.0 0.00 0.01 0.00 72 1010.3
20260505205437 56 235 9.0 15.0 0.00 0.01 0.00 73 1010.4
20260505205136 56 227 10.0 15.0 0.00 0.01 0.00 72 1010.6
20260505204835 56 234 10.0 15.0 0.00 0.01 0.00 70 1010.5
20260505204533 56 237 11.0 17.0 0.00 0.01 0.00 70 1010.6
20260505204232 56 236 11.0 17.0 0.00 0.01 0.00 70 1010.6
20260505203931 56 247 10.0 18.0 0.00 0.01 0.00 70 1010.6
20260505203630 57 249 11.0 21.0 0.00 0.01 0.00 70 1010.5
20260505203329 57 255 12.0 21.0 0.00 0.01 0.00 70 1010.5
20260505203028 57 243 15.0 21.0 0.00 0.01 0.00 70 1010.5
20260505202728 57 245 12.0 27.0 0.00 0.01 0.00 71 1010.6
20260505202126 57 238 17.0 27.0 0.00 0.01 0.00 71 1010.5
20260505201825 58 234 17.0 27.0 0.00 0.01 0.00 72 1010.7
20260505201524 58 239 14.0 22.0 0.00 0.01 0.00 73 1010.5
20260505201223 58 233 14.0 22.0 0.00 0.01 0.00 73 1010.5
20260505200922 58 234 16.0 22.0 0.00 0.01 0.00 74 1010.4
20260505200621 58 230 14.0 19.0 0.00 0.01 0.00 73 1010.4
20260505200320 58 234 13.0 19.0 0.00 0.01 0.00 73 1010.4
20260505200019 58 244 12.0 19.0 0.00 0.01 0.00 73 1010.3
20260505195718 57 234 12.0 16.0 0.00 0.01 0.00 73 1010.3
20260505195418 57 234 11.0 15.0 0.00 0.01 0.00 73 1010.2
20260505195117 57 228 11.0 16.0 0.00 0.01 0.00 73 1010.1
20260505194816 57 227 10.0 16.0 0.00 0.01 0.00 74 1010.1
20260505194515 57 230 12.0 16.0 0.00 0.01 0.00 74 1010.1
20260505194214 57 225 8.0 11.0 0.00 0.01 0.00 75 1009.9
20260505193913 57 225 9.0 11.0 0.00 0.01 0.00 75 1009.9
20260505193612 57 226 8.0 10.0 0.00 0.01 0.00 74 1009.8
20260505193311 57 225 7.0 9.0 0.00 0.01 0.00 74 1009.7
20260505193010 57 233 6.0 8.0 0.00 0.01 0.00 74 1009.6
20260505192709 58 229 6.0 8.0 0.00 0.01 0.00 73 1009.5
20260505192409 57 229 6.0 8.0 0.00 0.01 0.00 74 1009.5
20260505192108 57 227 6.0 7.0 0.00 0.01 0.00 73 1009.4
20260505191807 58 228 5.0 7.0 0.00 0.01 0.00 73 1009.4
20260505191506 58 249 5.0 7.0 0.00 0.01 0.00 73 1009.3
20260505191205 58 242 5.0 7.0 0.00 0.01 0.00 73 1009.4
20260505190904 58 252 4.0 7.0 0.00 0.01 0.00 74 1009.3
20260505190603 58 254 4.0 7.0 0.00 0.01 0.00 74 1009.3
20260505190302 57 247 5.0 7.0 0.00 0.01 0.00 74 1009.3
20260505190001 57 261 4.0 7.0 0.00 0.01 0.00 74 1009.3
20260505185701 58 259 5.0 7.0 0.00 0.01 0.00 74 1009.3
20260505185400 58 267 4.0 7.0 0.00 0.01 0.00 73 1009.2
20260505185059 58 264 5.0 7.0 0.00 0.01 0.00 73 1009.1
20260505184758 58 259 5.0 7.0 0.00 0.01 0.00 73 1009.2
20260505184457 58 270 5.0 7.0 0.00 0.01 0.00 72 1009.1
20260505184156 58 260 5.0 7.0 0.00 0.01 0.00 71 1009.1
20260505183856 58 265 5.0 8.0 0.00 0.01 0.00 71 1009.0
20260505183555 58 262 5.0 9.0 0.00 0.01 0.00 70 1008.9
20260505183254 58 262 5.0 9.0 0.00 0.01 0.00 70 1009.0
20260505182953 58 249 6.0 9.0 0.00 0.01 0.00 70 1008.9
20260505182652 58 260 5.0 8.0 0.00 0.01 0.00 70 1008.8
20260505182351 59 254 5.0 7.0 0.00 0.01 0.00 70 1008.7
20260505182050 59 243 3.0 6.0 0.00 0.01 0.00 69 1008.7
20260505181749 59 256 3.0 5.0 0.00 0.01 0.00 68 1008.6
20260505181449 59 263 3.0 6.0 0.00 0.01 0.00 68 1008.5
20260505181147 59 251 3.0 7.0 0.00 0.01 0.00 68 1008.4
20260505180846 59 270 4.0 7.0 0.00 0.01 0.00 69 1008.4
20260505180546 59 270 5.0 7.0 0.00 0.01 0.00 68 1008.4
20260505180245 60 260 3.0 5.0 0.00 0.01 0.00 66 1008.2
20260505175944 60 345 1.0 2.0 0.00 0.01 0.00 64 1008.1
20260505175643 60 338 0.0 2.0 0.00 0.01 0.00 63 1008.0
20260505175342 60 257 0.0 2.0 0.01 0.01 0.00 65 1008.0
20260505175041 60 224 1.0 3.0 0.01 0.01 0.00 64 1008.0
20260505174740 60 170 0.0 4.0 0.01 0.01 0.00 64 1008.0
20260505174440 60 51 2.0 6.0 0.01 0.01 0.00 63 1007.9
20260505174139 60 70 3.0 6.0 0.01 0.01 0.00 63 1007.9
20260505173838 60 25 3.0 6.0 0.01 0.01 0.00 62 1007.9
20260505173537 60 25 3.0 6.0 0.01 0.01 0.00 62 1008.1
20260505173236 60 21 2.0 6.0 0.01 0.01 0.00 64 1008.1
20260505172935 60 42 2.0 6.0 0.01 0.01 0.00 65 1008.0
20260505172634 60 43 3.0 6.0 0.01 0.01 0.00 66 1007.9
20260505172333 60 35 3.0 7.0 0.01 0.01 0.00 65 1008.0
20260505172032 60 347 3.0 7.0 0.01 0.01 0.00 66 1008.0
20260505171731 60 322 5.0 7.0 0.01 0.01 0.00 64 1008.1
20260505171430 60 11 2.0 7.0 0.01 0.01 0.00 62 1008.1
20260505171129 60 321 4.0 7.0 0.01 0.01 0.00 61 1008.2
20260505170828 60 306 4.0 7.0 0.01 0.01 0.00 61 1008.3
20260505170528 61 307 3.0 7.0 0.01 0.01 0.00 61 1008.4
20260505170227 61 304 3.0 7.0 0.00 0.00 0.00 61 1008.4
20260505165926 61 312 4.0 7.0 0.00 0.00 0.00 60 1008.3
20260505165625 61 308 3.0 9.0 0.00 0.00 0.00 61 1008.3
20260505165324 61 293 4.0 9.0 0.00 0.00 0.00 60 1008.5
20260505165023 61 302 4.0 12.0 0.00 0.00 0.00 60 1008.4
20260505164722 61 302 5.0 14.0 0.00 0.00 0.00 60 1008.5
20260505164421 61 301 6.0 14.0 0.00 0.00 0.00 59 1008.6
20260505164120 61 303 7.0 14.0 0.00 0.00 0.00 59 1008.5
20260505163819 61 285 7.0 13.0 0.00 0.00 0.00 57 1008.5
20260505163519 61 281 6.0 13.0 0.00 0.00 0.00 57 1008.5
20260505163217 61 280 6.0 13.0 0.00 0.00 0.00 58 1008.5
20260505162917 61 257 8.0 13.0 0.00 0.00 0.00 59 1008.5
20260505162616 61 256 7.0 12.0 0.00 0.00 0.00 60 1008.7
20260505162315 61 275 6.0 12.0 0.00 0.00 0.00 60 1008.6
20260505162014 62 296 6.0 12.0 0.00 0.00 0.00 58 1008.6
20260505161713 62 302 5.0 10.0 0.00 0.00 0.00 58 1008.5
20260505161412 62 311 4.0 10.0 0.00 0.00 0.00 57 1008.4
20260505161111 62 300 5.0 10.0 0.00 0.00 0.00 57 1008.5
20260505160811 62 308 4.0 11.0 0.00 0.00 0.00 56 1008.4
20260505160510 62 315 6.0 11.0 0.00 0.00 0.00 56 1008.3
20260505160209 62 307 5.0 11.0 0.00 0.00 0.00 55 1008.3
20260505153159 63 311 8.0 15.0 0.00 0.00 0.00 54 1008.2
20260505152858 64 304 7.0 14.0 0.00 0.00 0.00 53 1008.3
20260505152557 64 307 7.0 14.0 0.00 0.00 0.00 53 1008.2
20260505152257 64 307 8.0 14.0 0.00 0.00 0.00 51 1008.3
20260505151956 65 286 5.0 13.0 0.00 0.00 0.00 52 1008.4
20260505151655 64 275 6.0 13.0 0.00 0.00 0.00 53 1008.3
20260505151354 64 254 7.0 13.0 0.00 0.00 0.00 54 1008.3
20260505151053 64 254 7.0 12.0 0.00 0.00 0.00 53 1008.3
20260505150752 64 288 5.0 11.0 0.00 0.00 0.00 54 1008.4
20260505150451 64 250 6.0 11.0 0.00 0.00 0.00 55 1008.3
20260505150150 63 268 6.0 11.0 0.00 0.00 0.00 55 1008.3
20260505140433 63 306 6.0 13.0 0.00 0.00 0.00 63 1008.5
20260505140132 63 304 6.0 12.0 0.00 0.00 0.00 62 1008.6
20260505130114 67 258 9.0 15.0 0.00 0.00 0.00 50 1008.5
20260505124911 66 250 10.0 18.0 0.00 0.00 0.00 49 1008.2
20260505124610 66 296 5.0 18.0 0.00 0.00 0.00 50 1008.2
20260505124005 66 258 8.0 16.0 0.00 0.00 0.00 51 1008.3
20260505123704 67 266 9.0 15.0 0.00 0.00 0.00 49 1008.2
20260505123403 67 253 10.0 15.0 0.00 0.00 0.00 50 1008.2
20260505123102 67 267 8.0 17.0 0.00 0.00 0.00 50 1008.3
20260505122801 67 275 7.0 17.0 0.00 0.00 0.00 50 1008.3
20260505122500 67 249 9.0 17.0 0.00 0.00 0.00 50 1008.2
20260505122159 67 249 8.0 17.0 0.00 0.00 0.00 50 1008.5
20260505121858 68 264 11.0 17.0 0.00 0.00 0.00 49 1008.4
20260505121558 68 258 11.0 17.0 0.00 0.00 0.00 49 1008.5
20260505121257 69 265 10.0 19.0 0.00 0.00 0.00 48 1008.4
20260505120956 69 257 9.0 19.0 0.00 0.00 0.00 48 1008.4
20260505120655 70 269 9.0 19.0 0.00 0.00 0.00 45 1008.4
20260505120354 71 294 4.0 10.0 0.00 0.00 0.00 43 1008.5
20260505120054 72 255 3.0 10.0 0.00 0.00 0.00 41 1008.4
20260505115753 72 220 3.0 10.0 0.00 0.00 0.00 42 1008.3
20260505115451 72 225 0.0 6.0 0.00 0.00 0.00 44 1008.5
20260505115403 72 225 3.0 10.0 0.00 0.21 0.00 44 1008.5
20260505115102 72 220 6.0 10.0 0.00 0.21 0.00 44 1008.5
20260505114801 71 244 6.0 9.0 0.00 0.21 0.00 46 1008.5
20260505114500 71 298 3.0 8.0 0.00 0.21 0.00 43 1008.4
20260505114159 71 267 2.0 8.0 0.00 0.21 0.00 43 1008.4
20260505113858 71 297 4.0 8.0 0.00 0.21 0.00 41 1008.4
20260505113558 71 81 3.0 7.0 0.00 0.21 0.00 40 1008.4
20260505113257 71 337 3.0 8.0 0.00 0.21 0.00 41 1008.5
20260505112956 71 315 3.0 8.0 0.00 0.21 0.00 43 1008.5
20260505112655 71 319 4.0 9.0 0.00 0.21 0.00 41 1008.4
20260505112354 71 294 2.0 9.0 0.00 0.21 0.00 41 1008.5
20260505112053 71 300 4.0 9.0 0.00 0.21 0.00 43 1008.5
20260505111752 71 253 3.0 8.0 0.00 0.21 0.00 42 1008.5
20260505111451 71 242 5.0 8.0 0.00 0.21 0.00 41 1008.5
20260505111151 71 270 4.0 7.0 0.00 0.21 0.00 40 1008.5
20260505110850 71 305 3.0 7.0 0.00 0.21 0.00 41 1008.6
20260505110549 71 240 3.0 7.0 0.00 0.21 0.00 42 1008.5
20260505110247 71 271 2.0 7.0 0.00 0.21 0.00 41 1008.5
20260505102035 67 34 3.0 6.0 0.00 0.21 0.00 47 1008.8
20260505101709 68 11 2.0 5.0 0.00 0.21 0.00 48 1009.0
20260505101408 68 46 2.0 5.0 0.00 0.21 0.00 49 1009.0
20260505101107 68 319 2.0 5.0 0.00 0.21 0.00 50 1008.9
20260505100807 67 306 4.0 5.0 0.00 0.21 0.00 47 1008.9
20260505100506 67 69 2.0 5.0 0.00 0.21 0.00 48 1009.0
20260505100205 67 38 3.0 6.0 0.00 0.21 0.00 48 1009.0
20260505095904 67 30 2.0 6.0 0.00 0.21 0.00 48 1009.1
20260505095603 67 60 3.0 7.0 0.00 0.21 0.00 50 1009.1
20260505095304 67 47 3.0 7.0 0.00 0.21 0.00 53 1009.1
20260505095001 68 20 3.0 7.0 0.00 0.21 0.00 51 1009.1
20260505094701 68 98 3.0 6.0 0.00 0.21 0.00 55 1009.2
20260505094400 67 139 2.0 8.0 0.00 0.21 0.00 55 1009.2
20260505094059 67 83 4.0 8.0 0.00 0.21 0.00 54 1009.3
20260505093758 68 53 5.0 8.0 0.00 0.21 0.00 53 1009.2
20260505093457 69 262 2.0 8.0 0.00 0.21 0.00 53 1009.2
20260505093156 69 139 4.0 8.0 0.00 0.21 0.00 53 1009.4
20260505092855 69 137 2.0 6.0 0.00 0.21 0.00 52 1009.3
20260505092554 68 63 3.0 6.0 0.00 0.21 0.00 53 1009.4
20260505092253 67 18 2.0 7.0 0.00 0.21 0.00 53 1009.4
20260505091953 68 223 2.0 7.0 0.00 0.21 0.00 54 1009.6
20260505091652 68 221 4.0 7.0 0.00 0.21 0.00 56 1009.6
20260505091351 67 256 2.0 7.0 0.00 0.21 0.00 57 1009.7
20260505091050 67 192 3.0 7.0 0.00 0.21 0.00 57 1009.7
20260505090749 66 241 2.0 7.0 0.00 0.21 0.00 59 1009.7
20260505090448 66 203 4.0 7.0 0.00 0.21 0.00 59 1009.8
20260505090147 65 216 3.0 6.0 0.00 0.21 0.00 59 1009.8
20260505085846 65 200 3.0 6.0 0.00 0.21 0.00 61 1009.7
20260505085545 65 215 3.0 6.0 0.00 0.21 0.00 60 1009.7
20260505085244 65 145 3.0 4.0 0.00 0.21 0.00 61 1009.8
20260505084943 64 164 1.0 4.0 0.00 0.21 0.00 60 1009.7
20260505084643 65 352 1.0 4.0 0.00 0.21 0.00 59 1009.8
20260505084342 65 242 1.0 5.0 0.00 0.21 0.00 59 1009.8
20260505084041 65 261 3.0 7.0 0.00 0.21 0.00 60 1009.8
20260505083740 65 210 2.0 7.0 0.00 0.21 0.00 60 1009.9
20260505083439 65 211 4.0 7.0 0.00 0.21 0.00 62 1009.9
20260505083138 64 166 3.0 7.0 0.00 0.21 0.00 62 1010.0
20260505082837 65 120 2.0 7.0 0.00 0.21 0.00 63 1010.0
20260505082536 65 175 3.0 7.0 0.00 0.21 0.00 62 1010.1
20260505082236 64 217 2.0 7.0 0.00 0.21 0.00 62 1010.0
20260505081935 64 247 4.0 7.0 0.00 0.21 0.00 62 1009.9
20260505081633 64 191 3.0 7.0 0.00 0.21 0.00 63 1010.0
20260505081333 64 198 3.0 7.0 0.00 0.21 0.00 62 1010.0
20260505081032 63 226 2.0 5.0 0.00 0.21 0.00 61 1010.0
20260505080731 63 217 2.0 5.0 0.00 0.21 0.00 62 1009.9
20260505080430 63 221 2.0 5.0 0.00 0.21 0.00 63 1010.0
20260505080129 62 92 1.0 5.0 0.00 0.21 0.00 64 1010.0
20260505075828 62 75 2.0 5.0 0.00 0.21 0.00 63 1009.9
20260505075527 62 137 3.0 5.0 0.00 0.21 0.00 65 1010.0
20260505075226 62 161 2.0 6.0 0.00 0.21 0.00 68 1010.1
20260505074925 62 233 4.0 7.0 0.00 0.21 0.00 68 1010.0
20260505074627 61 209 3.0 7.0 0.00 0.21 0.00 66 1010.1
20260505074023 60 86 1.0 4.0 0.00 0.21 0.00 68 1010.2
20260505073722 60 301 2.0 4.0 0.00 0.21 0.00 67 1010.3
20260505073421 60 30 1.0 6.0 0.00 0.21 0.00 66 1010.3
20260505073120 60 293 2.0 6.0 0.00 0.21 0.00 68 1010.4
20260505072819 60 266 4.0 9.0 0.00 0.21 0.00 69 1010.5
20260505072518 59 249 3.0 9.0 0.00 0.21 0.00 72 1010.5
20260505072217 59 236 5.0 9.0 0.00 0.21 0.00 72 1010.5
20260505071916 59 254 3.0 7.0 0.00 0.21 0.00 72 1010.5
20260505071616 58 262 2.0 7.0 0.00 0.21 0.00 72 1010.5
20260505071314 58 236 4.0 7.0 0.00 0.21 0.00 73 1010.5
20260505071014 58 220 5.0 7.0 0.00 0.21 0.00 74 1010.6
20260505070713 58 219 3.0 8.0 0.00 0.21 0.00 75 1010.7
20260505070111 57 229 6.0 10.0 0.00 0.21 0.00 76 1010.7
20260505065810 57 234 7.0 11.0 0.00 0.21 0.00 76 1010.8
20260505065509 57 225 7.0 11.0 0.00 0.21 0.00 77 1010.8
20260505065208 57 231 8.0 11.0 0.00 0.21 0.00 76 1010.7
20260505064907 57 229 9.0 11.0 0.00 0.21 0.00 78 1010.8
20260505064606 56 228 9.0 11.0 0.00 0.21 0.00 77 1010.7
20260505064305 56 235 8.0 11.0 0.00 0.21 0.00 77 1010.7
20260505064004 56 237 7.0 10.0 0.00 0.21 0.00 77 1010.7
20260505063704 56 231 8.0 10.0 0.00 0.21 0.00 77 1010.7
20260505063402 56 229 8.0 10.0 0.00 0.21 0.00 78 1010.8
20260505063101 56 223 7.0 10.0 0.00 0.21 0.00 78 1010.7
20260505062800 56 224 8.0 10.0 0.00 0.21 0.00 78 1010.7
20260505062500 56 225 9.0 11.0 0.00 0.21 0.00 77 1010.8
20260505062158 56 225 8.0 11.0 0.00 0.21 0.00 78 1010.8
20260505061858 55 229 9.0 11.0 0.00 0.21 0.00 78 1010.8
20260505061557 55 227 8.0 12.0 0.00 0.21 0.00 80 1010.9
20260505061256 55 227 6.0 12.0 0.00 0.21 0.00 81 1010.8
20260505060955 55 225 9.0 13.0 0.00 0.21 0.00 80 1010.8
20260505060654 55 217 10.0 13.0 0.00 0.21 0.00 80 1010.8
20260505060353 54 224 10.0 13.0 0.00 0.21 0.00 81 1010.8
20260505060052 54 225 8.0 10.0 0.00 0.21 0.00 80 1010.8
20260505055751 54 223 7.0 9.0 0.00 0.21 0.00 80 1010.7
20260505055450 54 224 7.0 9.0 0.00 0.21 0.00 80 1010.7
20260505055149 54 223 8.0 9.0 0.00 0.21 0.00 79 1010.7
20260505054848 54 216 6.0 8.0 0.00 0.21 0.00 79 1010.6
20260505054547 54 207 6.0 7.0 0.00 0.21 0.00 78 1010.7
20260505054246 53 217 4.0 6.0 0.00 0.21 0.00 78 1010.6
20260505053945 53 144 2.0 4.0 0.00 0.21 0.00 78 1010.5
20260505053645 53 137 3.0 4.0 0.00 0.21 0.00 79 1010.5
20260505053343 53 143 2.0 4.0 0.00 0.21 0.00 79 1010.6
20260505053043 53 137 2.0 4.0 0.00 0.21 0.00 79 1010.6
20260505052742 52 177 2.0 5.0 0.00 0.21 0.00 79 1010.6
20260505052441 52 224 2.0 7.0 0.00 0.21 0.00 79 1010.6
20260505052140 52 206 4.0 7.0 0.00 0.21 0.00 80 1010.7
20260505051839 52 222 4.0 7.0 0.00 0.21 0.00 80 1010.6
20260505051538 51 225 6.0 7.0 0.00 0.21 0.00 80 1010.7
20260505051238 51 224 5.0 7.0 0.00 0.21 0.00 81 1010.8
20260505050937 51 218 4.0 6.0 0.00 0.21 0.00 81 1010.8
20260505050636 51 214 4.0 5.0 0.00 0.21 0.00 80 1010.9
20260505050335 51 212 3.0 5.0 0.00 0.21 0.00 80 1010.8
20260505041520 49 211 5.0 6.0 0.01 0.21 0.00 80 1011.0
20260505041219 49 194 4.0 5.0 0.01 0.21 0.00 81 1011.0
20260505040918 49 200 3.0 6.0 0.01 0.21 0.00 80 1011.0
20260505040617 49 224 4.0 6.0 0.01 0.21 0.00 80 1011.0
20260505040317 49 223 5.0 6.0 0.01 0.21 0.00 81 1010.9
20260505040016 49 222 5.0 6.0 0.00 0.20 0.00 80 1010.9
20260505035715 49 225 4.0 8.0 0.00 0.20 0.00 80 1010.9
20260505035414 49 223 4.0 8.0 0.00 0.20 0.00 80 1010.9
20260505035113 49 213 5.0 8.0 0.00 0.20 0.00 80 1010.9
20260505034812 49 215 3.0 6.0 0.00 0.20 0.00 80 1011.0
20260505034511 49 225 5.0 6.0 0.00 0.20 0.00 80 1010.9
20260505034210 49 225 5.0 6.0 0.00 0.20 0.00 80 1010.9
20260505033909 49 223 4.0 6.0 0.00 0.20 0.00 80 1010.9
20260505033608 49 225 3.0 4.0 0.00 0.20 0.00 81 1010.9
20260505033307 49 225 3.0 3.0 0.00 0.20 0.00 80 1010.9
20260505033006 49 227 2.0 3.0 0.00 0.20 0.00 79 1010.9
20260505032705 49 222 3.0 5.0 0.00 0.20 0.00 80 1010.9
20260505032405 49 207 2.0 6.0 0.00 0.20 0.00 80 1011.0
20260505032104 49 223 3.0 7.0 0.00 0.20 0.00 80 1011.1
20260505031803 49 220 5.0 7.0 0.00 0.20 0.00 80 1011.1
20260505031502 49 208 5.0 7.0 0.00 0.20 0.00 80 1011.1
20260505031201 50 220 3.0 7.0 0.00 0.20 0.00 80 1011.1
20260505030900 50 210 6.0 7.0 0.00 0.20 0.00 81 1011.1
20260505030559 50 220 4.0 4.0 0.00 0.20 0.00 80 1011.1
20260505030258 49 223 3.0 4.0 0.00 0.20 0.00 80 1011.2
20260505025957 49 223 3.0 4.0 0.00 0.20 0.00 80 1011.1
20260505025656 50 225 4.0 5.0 0.00 0.20 0.00 80 1011.2
20260505025355 49 225 4.0 5.0 0.00 0.20 0.00 80 1011.3
20260505025054 50 225 4.0 5.0 0.00 0.20 0.00 80 1011.4
20260505024754 50 225 4.0 6.0 0.00 0.20 0.00 81 1011.4
20260505024453 50 225 4.0 6.0 0.00 0.20 0.00 82 1011.4
20260505024152 49 227 4.0 6.0 0.00 0.20 0.00 82 1011.4
20260505023851 50 226 4.0 5.0 0.00 0.20 0.00 81 1011.4
20260505023550 50 224 4.0 5.0 0.00 0.20 0.00 82 1011.5
20260505023249 50 223 3.0 6.0 0.00 0.20 0.00 82 1011.6
20260505022948 50 228 4.0 6.0 0.00 0.20 0.00 82 1011.6
20260505022046 50 226 6.0 8.0 0.00 0.20 0.00 82 1011.7
20260505021745 50 225 6.0 8.0 0.00 0.20 0.00 82 1011.7
20260505021444 50 227 6.0 8.0 0.00 0.20 0.00 83 1011.8
20260505021143 50 226 5.0 7.0 0.00 0.20 0.00 81 1011.8
20260505020843 50 225 5.0 8.0 0.00 0.20 0.00 81 1011.7
20260505020541 50 225 5.0 8.0 0.00 0.20 0.00 82 1011.8
20260505020240 50 227 5.0 8.0 0.00 0.20 0.00 81 1011.8
20260505015939 51 234 3.0 5.0 0.00 0.20 0.00 79 1011.9
20260505015638 51 224 4.0 5.0 0.00 0.20 0.00 80 1011.8
20260505015338 51 225 5.0 5.0 0.00 0.20 0.00 80 1011.8
20260505015037 51 225 4.0 6.0 0.00 0.20 0.00 79 1011.8
20260505014736 51 225 4.0 6.0 0.00 0.20 0.00 80 1011.7
20260505014435 51 225 5.0 6.0 0.00 0.20 0.00 80 1011.8
20260505014134 51 214 3.0 5.0 0.00 0.20 0.00 80 1011.8
20260505013833 51 208 3.0 5.0 0.00 0.20 0.00 79 1011.8
20260505013532 51 223 3.0 5.0 0.00 0.20 0.00 79 1011.8
20260505013231 51 225 3.0 5.0 0.00 0.20 0.00 80 1011.9
20260505012930 51 222 4.0 5.0 0.00 0.20 0.00 81 1012.0
20260505012629 51 225 5.0 5.0 0.00 0.20 0.00 80 1012.1
20260505012328 51 225 4.0 5.0 0.00 0.20 0.00 79 1011.9
20260505012028 51 225 4.0 5.0 0.00 0.20 0.00 78 1011.9
20260505011727 51 225 4.0 6.0 0.00 0.20 0.00 78 1012.0
20260505011426 51 225 4.0 6.0 0.00 0.20 0.00 79 1012.0
20260505011124 51 221 5.0 6.0 0.00 0.20 0.00 79 1012.0
20260505010823 52 222 5.0 6.0 0.00 0.20 0.00 79 1012.0
20260505010522 52 225 5.0 6.0 0.00 0.20 0.00 79 1012.0
20260505010221 52 224 4.0 5.0 0.00 0.20 0.00 79 1012.0
20260505005921 52 225 4.0 4.0 0.00 0.20 0.00 79 1012.0
20260505005620 52 225 3.0 4.0 0.00 0.20 0.00 79 1012.0
20260505005319 52 222 3.0 4.0 0.00 0.20 0.00 79 1012.0
20260505005018 52 223 3.0 4.0 0.00 0.20 0.00 79 1012.1
20260505004717 52 218 2.0 3.0 0.00 0.20 0.00 80 1012.0
20260505004416 52 225 2.0 3.0 0.00 0.20 0.00 80 1012.1
20260505004115 52 213 1.0 2.0 0.00 0.20 0.00 80 1012.0
20260505003814 52 222 1.0 4.0 0.00 0.20 0.00 80 1012.1
20260505003513 52 191 1.0 4.0 0.00 0.20 0.00 79 1012.1
20260505003213 53 212 2.0 4.0 0.00 0.20 0.00 79 1012.2
20260505002912 53 218 4.0 4.0 0.00 0.20 0.00 79 1012.2
20260505002610 53 214 3.0 4.0 0.00 0.20 0.00 79 1012.1
20260505002310 53 220 3.0 4.0 0.00 0.20 0.00 78 1012.2
20260505002009 53 203 2.0 4.0 0.00 0.20 0.00 79 1012.2
20260505001708 53 218 1.0 4.0 0.00 0.20 0.00 79 1012.3
20260505001407 53 219 2.0 4.0 0.00 0.20 0.00 79 1012.3
20260505001106 53 145 2.0 4.0 0.00 0.20 0.00 78 1012.3
20260505000805 53 188 2.0 4.0 0.00 0.20 0.00 78 1012.3
20260505000504 53 218 3.0 4.0 0.00 0.20 0.00 78 1012.3
20260505000204 54 222 3.0 4.0 0.00 0.20 0.00 78 1012.4
20260504235902 53 208 3.0 4.0 0.00 0.20 0.00 78 1012.5
20260504235601 53 221 3.0 4.0 0.00 0.20 0.00 79 1012.5
20260504235300 54 192 1.0 4.0 0.00 0.20 0.00 78 1012.6
20260504235000 54 132 2.0 4.0 0.00 0.20 0.00 78 1012.6
20260504234659 54 173 1.0 6.0 0.00 0.20 0.00 77 1012.5
20260504234358 54 202 3.0 6.0 0.00 0.20 0.00 77 1012.6
20260504234057 54 221 3.0 6.0 0.00 0.20 0.00 78 1012.6
20260504233756 54 212 4.0 6.0 0.00 0.20 0.00 78 1012.5
20260504233455 54 207 3.0 5.0 0.00 0.20 0.00 78 1012.6
20260504233154 54 219 3.0 5.0 0.00 0.20 0.00 78 1012.6
20260504232853 54 221 3.0 5.0 0.00 0.20 0.00 78 1012.7
20260504232552 55 221 4.0 5.0 0.00 0.20 0.00 79 1012.6
20260504232251 54 223 4.0 5.0 0.00 0.20 0.00 78 1012.6
20260504231950 54 216 2.0 4.0 0.00 0.20 0.00 78 1012.6
20260504231649 54 221 1.0 4.0 0.00 0.20 0.00 78 1012.7
20260504231349 55 228 3.0 4.0 0.00 0.20 0.00 77 1012.7
20260504231048 55 239 2.0 4.0 0.00 0.20 0.00 78 1012.8
20260504230747 55 233 2.0 4.0 0.00 0.20 0.00 78 1012.8
20260504230446 55 225 3.0 5.0 0.00 0.20 0.00 78 1012.9
20260504230145 55 219 4.0 7.0 0.00 0.20 0.00 78 1012.9
20260504225844 55 225 5.0 7.0 0.00 0.20 0.00 77 1012.9
20260504225543 55 220 6.0 7.0 0.00 0.20 0.00 78 1012.9
20260504225242 55 218 4.0 6.0 0.00 0.20 0.00 78 1012.9
20260504224941 55 216 3.0 6.0 0.00 0.20 0.00 78 1012.9
20260504224640 55 210 4.0 6.0 0.00 0.20 0.00 78 1013.0
20260504224339 55 214 4.0 4.0 0.00 0.20 0.00 77 1013.1
20260504224038 56 223 2.0 6.0 0.00 0.20 0.00 77 1013.1